Preview of NWS' New Version of Forecast
This preview is not operational and should not be used for support decisions.

Regional Weather Roundup (RWR)

Issued by National Weather Service (NWS)

                            
000
ASUS43 KBIS 251410
RWRND 

NORTH DAKOTA REGIONAL WEATHER ROUNDUP
NATIONAL WEATHER SERVICE BISMARCK ND
900 AM CDT SUN AUG 25 2019

NOTE: "FAIR" INDICATES FEW OR NO CLOUDS BELOW 12,000 FEET WITH NO
SIGNIFICANT WEATHER AND/OR OBSTRUCTIONS TO VISIBILITY.


NDZ001>003-009>011-017-251500-
NORTHWEST NORTH DAKOTA
  
CITY           SKY/WX    TMP DP  RH WIND       PRES   REMARKS
WILLISTON      MOSUNNY   67  59  75 NE7       29.72R                  
MINOT          CLOUDY    68  63  84 S7        29.70F                  
MINOT AFB      CLOUDY    65  64  97 S7        29.69F                  
$$
 
NDZ018>021-031>035-040>046-251500-
SOUTHWEST NORTH DAKOTA
  
CITY           SKY/WX    TMP DP  RH WIND       PRES   REMARKS
BISMARCK       CLOUDY    68  65  90 S7        29.74F                  
DICKINSON      CLOUDY    65  60  84 SW7       29.73R                  
GARRISON         N/A     66  63  90 S13       29.71S                  
HETTINGER ARPT CLOUDY    64  59  83 CALM      29.77R                  
$$
 
NDZ004>008-012>016-024-026-027-054-251500-
NORTHEAST NORTH DAKOTA
  
CITY           SKY/WX    TMP DP  RH WIND       PRES   REMARKS
GRAND FORKS    RAIN      62  57  83 S14       29.81F                  
GRND FRKS AFB  CLOUDY    61  60  97 S16       29.81F                  
DEVILS LAKE    LGT RAIN  63  62  97 SE13      29.77F                  
$$
 
NDZ022-023-025-028>030-036>039-047>053-251500-
SOUTHEAST NORTH DAKOTA
  
CITY           SKY/WX    TMP DP  RH WIND       PRES   REMARKS
FARGO          CLOUDY    64  57  78 S17G29    29.85F                  
JAMESTOWN      CLOUDY    63  63 100 SE10      29.81F                  
$$